SCP
0 0 0 0 0 0 0 0 0 0 0 0 0 0 0 0 0 0 0 0 0 0 0 0 0 0 0 0 0 0 0 0 0 0 0 0 0 1 1 1 1 1 0
0 0 0 0 0 0 0 0 0 0 0 0 0 0 0 0 0 0 0 0 0 0 0 0 0 0 0 0 0 0 0 0 0 0 0 0 0 1 1 1 1 1 1
0 0 0 0 0 0 0 0 0 0 0 0 0 0 0 0 0 0 0 0 0 0 0 0 0 0 0 0 0 0 0 0 0 0 0 0 1 1 1 1 1 1 1
0 0 0 0 0 0 0 0 0 0 0 0 0 0 0 0 0 0 0 0 0 0 0 0 0 0 0 0 0 0 0 0 0 0 0 1 1 1 1 1 1 1 1
0 0 0 0 0 0 0 0 0 0 0 0 0 0 0 0 0 0 0 0 0 0 0 0 0 0 0 0 0 0 0 0 0 0 0 1 1 1 1 1 2 2 2
0 0 0 0 0 0 0 0 0 0 0 0 0 0 0 0 0 0 0 0 0 0 0 0 0 0 0 0 0 0 0 0 0 0 0 0 1 1 1 2 2 3 3
0 0 0 0 0 0 0 0 0 0 0 0 0 0 0 0 0 0 0 0 0 0 0 0 0 0 0 0 0 0 0 0 0 0 0 0 0 1 1 1 2 3 3
0 0 0 0 0 0 0 0 0 0 0 0 0 0 0 0 0 0 0 0 0 0 0 0 0 0 0 0 0 0 0 0 0 0 0 0 0 1 1 1 2 3 3
0 0 0 0 0 0 0 0 0 0 0 0 0 0 0 0 0 0 0 0 0 0 0 0 0 0 0 0 0 0 0 0 0 0 0 0 0 0 1 1 2 3 3
0 0 0 0 0 0 0 0 0 0 0 0 0 0 0 0 0 0 0 0 0 0 0 0 0 0 0 0 0 0 0 0 0 0 0 0 0 0 1 1 2 2 2
0 0 0 0 0 0 0 0 0 0 0 0 0 0 0 0 0 0 0 0 0 0 0 0 0 0 0 0 0 0 0 0 0 0 0 0 0 0 0 1 1 2 2
0 0 0 0 0 0 0 0 0 0 0 0 0 0 0 0 0 0 0 0 0 0 0 0 0 0 0 0 0 0 0 0 0 0 0 0 0 0 0 1 1 2 2
0 0 0 0 0 0 0 0 0 0 0 0 0 0 0 0 0 0 0 0 0 0 0 0 0 0 0 0 0 0 0 0 0 0 0 0 0 0 0 0 1 1 2
0 0 0 0 0 0 0 0 0 0 0 0 0 0 0 0 0 0 0 0 0 0 0 0 0 0 0 0 0 0 0 0 0 0 0 0 0 0 0 0 0 1 1
0 0 0 0 0 0 0 0 0 0 0 0 0 0 0 0 0 0 0 0 0 0 0 0 0 0 0 0 0 0 0 0 0 0 0 0 0 0 0 0 0 0 1
0 0 0 0 0 0 0 0 0 0 0 0 0 0 0 0 0 0 0 0 0 0 0 0 0 0 0 0 0 0 0 0 0 0 0 0 0 0 0 0 0 0 0
0 0 0 0 0 0 0 0 0 0 0 0 0 0 0 0 0 0 0 0 0 0 0 0 0 0 0 0 0 0 0 0 0 0 0 0 0 0 0 0 0 0 0
0 0 0 0 0 0 0 0 0 0 0 0 0 0 0 0 0 0 0 0 0 0 0 0 0 0 0 0 0 0 0 0 0 0 0 0 0 0 0 0 0 0 0
0 0 0 0 0 0 0 0 0 0 0 0 0 0 0 0 0 0 0 0 0 0 0 0 0 0 0 0 0 0 0 0 0 0 0 0 0 0 0 0 0 0 0
0 0 0 0 0 0 0 0 0 0 0 0 0 0 0 0 0 0 0 0 0 0 0 0 0 0 0 0 0 0 0 0 0 0 0 0 0 0 0 0 0 0 0
0 0 0 0 0 0 0 0 0 0 0 0 0 0 0 0 0 0 0 0 0 0 0 0 0 0 0 0 0 0 0 0 0 0 0 0 0 0 0 0 0 0 0
0 0 0 0 0 0 0 0 0 0 0 0 0 0 0 0 0 0 0 0 0 0 0 0 0 0 0 0 0 0 0 0 0 0 0 0 0 0 0 0 0 0 0
0 0 0 0 0 0 0 0 0 0 0 0 0 0 0 0 0 0 0 0 0 0 0 0 0 0 0 0 0 0 0 0 0 0 0 0 0 0 0 0 0 0 0
0 0 0 0 0 0 0 0 0 0 0 0 0 0 0 0 0 0 0 0 0 0 0 0 0 0 0 0 0 0 0 0 0 0 0 0 0 0 0 0 0 0 0
0 0 0 0 0 0 0 0 0 0 0 0 0 0 0 0 0 0 0 0 0 0 0 0 0 0 0 0 0 0 0 0 0 0 0 0 0 0 0 0 0 0 0
0 0 0 0 0 0 0 0 0 0 0 0 0 0 0 0 0 0 0 0 0 0 0 0 0 0 0 0 0 0 0 0 0 0 0 0 0 0 0 0 0 0 0
Wind_Speed
7 7 5 5 5 4 4 3 2 2 3 4 4 6 6 7 7 7 6 11 14 16 18 18 19 20 21 22 22 23 24 25 25 26 26 27 27 28 29 30 31 31 32
8 7 7 6 6 5 4 3 3 3 4 4 6 7 7 8 8 9 8 9 13 15 16 17 18 20 21 22 22 23 24 25 26 27 27 28 28 29 29 30 31 32 33
10 8 7 7 6 6 6 5 5 4 4 5 7 8 7 8 9 10 10 8 8 11 14 16 18 19 20 21 22 23 24 25 26 27 28 29 29 29 30 31 32 33 33
12 10 8 8 7 6 6 5 5 5 5 6 6 6 7 8 10 11 10 9 8 8 10 14 17 19 20 21 22 23 25 26 27 28 29 30 30 31 32 32 33 34 34
14 11 9 8 9 7 7 6 6 6 6 6 7 7 8 9 9 10 11 11 10 10 9 12 16 18 19 21 22 23 25 26 27 28 29 30 31 32 33 33 34 34 35
16 13 10 11 10 8 8 8 8 7 6 6 7 8 9 10 9 9 10 9 9 11 11 11 11 12 17 20 22 23 25 26 27 28 29 31 32 33 33 35 35 36 37
16 15 11 12 11 10 10 10 9 9 8 6 7 8 9 11 10 8 8 9 10 11 11 12 10 10 9 17 21 23 24 26 27 29 30 31 33 33 34 35 36 37 38
17 15 16 12 13 11 12 12 11 8 7 7 6 6 6 6 8 8 8 9 10 9 11 12 12 12 12 10 14 22 24 26 28 29 30 32 33 34 35 36 36 38 37
19 18 18 15 14 13 12 13 13 13 9 8 8 6 6 5 4 6 10 9 10 10 10 11 13 14 14 13 13 18 23 26 28 30 31 32 34 35 36 36 37 38 37
20 20 19 18 16 14 14 13 13 11 11 9 8 9 9 7 6 6 6 8 10 12 12 11 12 14 15 13 15 22 25 26 28 30 32 33 34 35 36 36 37 38 37
20 21 20 18 17 15 16 15 14 14 11 11 9 8 9 9 11 9 10 9 9 10 11 12 12 12 14 14 13 18 25 27 29 30 32 33 34 36 36 37 37 38 37
15 21 20 19 18 16 16 16 15 16 13 13 11 9 9 8 8 10 11 12 12 11 12 12 12 13 13 13 17 23 26 28 29 31 32 33 34 35 36 37 38 38 37
14 19 20 19 18 17 16 16 15 15 16 15 13 11 10 11 10 10 11 13 14 13 14 12 12 12 12 12 13 22 24 28 29 31 32 33 33 34 35 36 37 37 37
14 16 20 19 20 19 17 16 14 15 13 15 15 14 11 11 10 11 11 12 13 13 14 16 12 12 12 12 16 23 20 27 29 30 32 32 33 34 35 36 36 36 37
13 17 19 20 20 19 19 18 14 16 14 15 14 15 13 11 11 11 11 11 12 14 16 16 13 13 12 13 17 17 18 24 29 31 32 33 34 34 35 35 35 35 35
16 16 18 19 19 19 19 18 15 15 15 14 12 13 14 11 11 11 11 11 12 14 16 14 14 15 16 14 20 20 19 28 30 31 32 33 33 34 34 34 34 34 34
17 18 18 19 19 20 19 18 18 16 17 16 14 14 16 14 12 11 11 11 12 13 16 17 15 16 20 20 18 17 17 18 18 28 31 32 33 33 34 34 34 33 33
17 18 18 19 20 20 20 20 19 18 17 17 16 16 16 13 16 13 12 13 13 14 15 20 17 16 20 20 19 19 17 16 17 25 30 32 32 33 33 33 32 32 32
17 17 18 19 19 19 19 20 19 18 17 17 16 16 16 15 16 13 14 13 12 13 14 16 18 16 16 16 18 18 19 17 17 20 26 28 30 30 31 31 31 31 30
17 17 18 19 18 17 17 17 17 17 16 16 16 15 15 16 16 15 13 15 14 15 15 15 16 16 15 16 15 15 15 14 15 15 19 21 25 28 30 30 30 30 29
16 16 17 18 18 16 15 16 16 17 17 16 15 15 16 19 21 17 13 13 14 13 13 14 15 15 14 14 14 14 15 15 16 14 15 15 15 15 16 20 24 25 26
15 16 17 17 18 15 21 28 21 17 16 16 15 15 16 19 22 26 26 25 21 16 15 15 15 16 17 17 15 14 16 17 17 12 14 15 14 15 14 13 19 23 24
15 16 17 18 19 20 26 29 31 18 16 15 15 14 12 13 18 15 19 22 21 24 24 18 18 18 18 17 18 19 18 18 18 15 15 17 14 15 13 14 23 24 25
14 14 16 18 18 19 27 29 30 22 16 16 15 15 15 14 13 14 12 14 15 15 17 14 14 16 16 17 16 17 18 19 19 15 14 16 14 14 14 13 20 23 24
13 14 15 17 18 19 25 28 28 16 15 16 15 15 15 15 18 19 14 15 16 14 16 21 22 22 25 25 21 14 15 15 16 14 11 12 13 13 14 13 13 19 20
13 12 14 15 17 17 22 27 29 14 14 13 13 14 19 19 18 19 14 14 15 13 11 12 14 16 16 17 20 14 12 13 14 13 9 8 10 10 10 9 8 8 9
Wind_Direction
197 195 200 200 206 207 214 229 253 287 300 309 307 306 304 303 299 295 293 294 298 301 303 305 307 308 309 310 310 311 312 311 310 309 309 309 308 307 305 303 301 298 296
201 198 202 204 208 210 217 231 250 271 281 286 288 289 289 290 284 283 281 284 283 288 293 297 301 304 305 307 308 309 309 308 307 306 305 305 304 303 302 300 297 295 292
204 201 206 206 207 206 212 223 232 251 264 271 273 278 280 279 277 276 276 275 277 277 280 287 294 299 301 303 304 305 305 305 304 303 302 301 301 300 299 297 295 292 289
206 205 208 210 204 204 212 220 229 241 247 259 269 273 273 271 272 272 270 265 266 271 275 279 287 293 297 299 301 301 302 302 302 301 299 299 298 297 296 294 293 291 287
206 207 211 210 203 206 211 216 224 234 246 254 264 271 270 267 269 266 263 260 259 264 270 276 280 285 289 292 295 298 299 299 299 298 297 296 296 294 294 293 291 290 286
205 208 211 210 205 208 211 212 221 223 240 254 266 269 268 267 265 261 260 257 256 260 264 272 277 279 281 286 290 293 295 297 297 296 296 294 293 292 292 292 289 289 287
205 208 210 209 207 212 213 214 218 226 228 232 254 263 259 253 253 251 251 254 258 261 264 268 272 276 280 283 287 289 291 294 294 294 293 292 291 290 289 290 290 289 286
207 207 211 209 207 212 214 214 214 221 225 217 233 265 274 247 222 239 249 255 261 265 266 269 273 275 280 281 281 285 288 290 291 292 292 291 289 288 289 288 290 289 285
210 209 211 211 209 210 212 211 209 215 222 215 217 234 256 275 290 244 247 252 259 264 268 273 274 276 278 279 282 283 284 286 288 290 290 290 289 288 288 288 289 290 286
213 211 211 212 211 210 213 211 209 212 219 225 216 222 234 255 270 285 251 247 253 261 266 271 275 277 278 278 277 281 283 285 286 287 288 289 289 289 289 289 290 290 288
214 212 211 210 211 211 212 210 207 210 213 221 223 220 228 238 235 247 272 277 270 266 271 274 276 276 277 276 276 278 282 283 284 285 287 288 289 289 289 290 290 291 289
213 214 211 211 211 210 210 210 209 210 212 218 223 226 228 232 236 241 260 273 280 280 280 277 275 274 274 274 275 279 281 282 283 284 285 286 287 288 289 290 290 291 289
215 213 209 211 210 210 209 207 208 212 213 216 219 224 229 235 243 252 262 273 279 282 281 276 271 272 274 274 275 279 281 282 283 283 283 284 285 286 286 287 288 289 290
221 216 211 212 211 208 207 206 208 211 213 217 221 224 231 235 238 243 253 269 279 281 279 279 280 280 281 280 278 281 280 280 281 281 282 282 283 283 283 284 285 286 288
225 220 214 213 211 209 206 204 209 210 210 215 220 223 229 236 238 242 247 251 264 279 283 287 288 287 285 282 280 279 278 279 280 280 280 280 281 281 282 282 283 283 284
226 223 218 215 212 209 207 206 209 211 211 214 218 225 228 233 237 240 243 247 250 260 274 281 286 286 287 281 280 279 278 279 280 280 280 281 281 281 281 281 281 281 281
227 224 220 216 214 210 207 206 209 207 211 215 216 223 230 234 238 241 242 245 249 252 265 276 280 285 286 284 282 280 279 278 278 278 280 280 281 280 280 279 278 278 278
229 225 222 218 216 212 207 207 208 208 209 214 218 222 230 231 236 241 244 247 251 253 262 275 281 284 283 284 284 283 282 279 277 279 280 280 280 280 279 278 277 277 276
230 225 222 221 218 213 209 208 207 208 210 214 217 221 227 230 236 239 242 248 252 256 259 268 276 280 282 282 284 282 281 280 280 279 281 280 279 279 278 277 276 275 274
230 226 223 222 220 214 210 207 206 207 210 215 219 222 226 229 234 240 244 249 253 258 261 265 272 279 282 285 285 287 287 285 283 283 281 280 279 279 277 275 273 272 270
233 230 228 226 222 216 209 205 204 206 209 214 219 224 228 231 234 237 240 246 249 255 263 269 276 282 285 289 290 293 290 291 286 285 284 281 280 276 275 273 270 268 266
233 230 229 226 224 220 215 211 204 208 210 213 218 223 230 236 241 245 250 253 256 262 270 275 279 282 286 292 294 293 292 291 290 288 286 284 282 278 275 270 268 267 266
234 231 228 227 227 224 219 216 211 206 211 214 218 223 227 232 237 241 252 261 267 270 270 271 276 280 288 292 293 291 288 287 287 292 290 284 281 278 277 272 271 267 264
235 232 229 228 228 226 222 220 217 210 214 217 219 223 229 234 233 238 245 254 258 261 263 266 267 274 278 283 283 285 289 288 285 282 279 281 283 282 282 277 273 267 263
237 233 230 228 229 227 222 220 218 214 217 220 221 225 230 237 241 245 249 257 263 264 266 267 267 274 281 288 290 291 290 288 289 290 286 279 284 289 286 280 276 270 263
241 236 233 230 229 229 223 220 217 214 216 218 221 224 230 235 242 246 248 256 265 272 274 277 276 277 280 283 285 281 282 284 287 290 287 280 285 295 293 285 291 295 276